COSMOS 2251 DEB, 34815

Orbit data source: Space-Track

COSMOS 2251 DEB, 34815 is space debris in LEO originally from a launch on Wed, 16 Jun 1993 UTC launched from the Plesetsk Missile And Space Complex (PKMTR). The debris from Iridium 33, an American commercial communications satellite, has been tracked extensively since its accidental collision with the defunct Russian satellite Cosmos 2251 in 2009. This event, occurring at high speed in low Earth orbit (LEO), generated thousands of pieces of space debris, significantly increasing the risk of further collisions. The Iridium 33 debris cloud has impacted space traffic management and orbital debris mitigation strategies, making it a subject of ongoing study in space situational awareness.

Loading next visibility...
Identifier
34815, 1993-036ABE
Orbit
LEO
Country
Flag of CISCIS
Related business
Manufacturer
Unknown
Mission
Spacecraft
Bus & Motor
Unknown
Mass
Unknown
Launch date (UTC)
1993-06-16 (33 years ago)
Launch vehicle
Unknown
Launch site
Plesetsk Missile And Space Complex (PKMTR)
Object type
Payload
Rocket body
Debris
Shape & HBR
Unknown shape, 0.1 m
Radar Cross Section
Small (<0.1 m²)

Expand to show TLE details & history
Last TLE update: 13 hours ago

TLE from 13 hours ago
0 COSMOS 2251 DEB
1 34815U 93036ABE 26150.74788157  .00006093  00000-0  77714-3 0  9990
2 34815  74.0449 269.2602 0055397 296.1267  63.4216 14.80608432911278
Epoch: 2026-05-30T17:56Z
TLE epoch observation values (Epoch: 2026-05-30T17:56:56.967Z)
Latitude
-0.00004°
Longitude
111.76336°
Altitude
612.876 km
Speed
7.562 km/s
True Right ascension
17h 57m 02s
True Declination
0° 00' 00"
Sunlit
Object was in full shadow at epoch
Visualization orbit readout
Latitude
Unknown
Longitude
Unknown
Altitude
Unknown
Speed
Unknown
Apparent Right ascension
Unknown
Apparent Declination
Unknown
Sunlit
N/A
Visualization observer readout
Local Sidereal Time
16:27:13
Azimuth
Unknown
Elevation
Unknown
Doppler factor
Unknown
Orbital elements
Apogee altitude
663.773 km
Perigee altitude
586.183 km
Semi-major axis
7,003.115 km
Eccentricity
0.00554
Inclination
74.0449°
RAAN
269.2602°
Arg. of periapsis
296.1267°
True anomaly
63.99107°
Mean anomaly
63.4216°
Eccentric anomaly
63.70616°
Mean motion
3.70345 °/min
Orbital period
97.21 mins
BSTAR
0.00077714

Documentation

Showing up to 5 results
|